LVVTS SABE-SAVV

Flight info

Callsign LVVTS
Flight time N/A
Altitude 41000
Route PTA8 GBE UT694 IREMO
Aircraft C700/M-SBDGHM1RWXY/LB2

Departure

Time 2026-05-08 00:44
Airport Aeroparque Jorge Newbery (SABE)

Arrival

Time N/A
Airport Gobernador Castello Airport (SAVV)
Time Latitude Longitude Altitude Speed Heading
2026-05-07 23:51 -34.56468 -58.40933 20 ft 0 kts 34°
2026-05-08 00:30 -34.56469 -58.40934 20 ft 2 kts 34°
2026-05-08 00:31 -34.56480 -58.40948 20 ft 2 kts 71°
2026-05-08 00:31 -34.56479 -58.40967 20 ft 2 kts 118°
2026-05-08 00:31 -34.56476 -58.40973 20 ft 0 kts 122°
2026-05-08 00:33 -34.56483 -58.40960 23 ft 6 kts 122°
2026-05-08 00:34 -34.56510 -58.40911 20 ft 6 kts 121°
2026-05-08 00:34 -34.56499 -58.40834 20 ft 14 kts 65°
2026-05-08 00:34 -34.56483 -58.40795 20 ft 0 kts 64°
2026-05-08 00:40 -34.56480 -58.40785 22 ft 6 kts 65°
2026-05-08 00:40 -34.56448 -58.40711 20 ft 7 kts 44°
2026-05-08 00:40 -34.56396 -58.40733 20 ft 11 kts 298°
2026-05-08 00:41 -34.56384 -58.40757 20 ft 0 kts 303°
2026-05-08 00:43 -34.56381 -58.40763 22 ft 6 kts 302°
2026-05-08 00:43 -34.56306 -58.40904 23 ft 41 kts 305°
2026-05-08 00:43 -34.56003 -58.41517 28 ft 116 kts 324°
2026-05-08 00:44 -34.55228 -58.42158 476 ft 147 kts 314°
2026-05-08 00:44 -34.54571 -58.43081 1360 ft 158 kts 299°
2026-05-08 00:44 -34.53734 -58.44141 1986 ft 195 kts 326°
2026-05-08 00:44 -34.52185 -58.44384 2515 ft 265 kts 360°